+ View the NASA Portal
+ Center for Near-Earth Object Studies
IMPORTANT:
The SSD Announcement email list is now available. Major changes are coming in the near future, including possible hostname and/or URL changes. To be notified of such changes, subscribe to this email list.
Please visit
this page
for more details.
Don't show this message again
JPL Small-Body Database Browser
Search:
[
help
]
437736 (2014 EC10)
Classification:
Main-belt Asteroid
SPK-ID:
2437736
[
Ephemeris
|
Orbit Diagram
|
Orbital Elements
|
Mission Design
|
Physical Parameters
|
Discovery Circumstances
|
Close-Approach Data
]
[ show orbit diagram ]
Orbital Elements at Epoch 2458600.5 (2019-Apr-27.0) TDB
Reference:
JPL 12
(heliocentric ecliptic J2000)
Element
Value
Uncertainty (1-sigma)
Units
e
.04618013681239536
7.7915e-08
a
3.176846874993121
8.4554e-08
au
q
3.030139651673908
2.6341e-07
au
i
7.822815235415959
7.7822e-06
deg
node
268.000467088951
6.2691e-05
deg
peri
230.6775055118568
0.00011107
deg
M
345.1791533299134
9.7237e-05
deg
t
p
2458685.645826148100
(2019-Jul-21.14582615)
0.00056037
TDB
period
2068.201506677943
5.66
8.257e-05
2.261e-07
d
yr
n
.1740642770240756
6.9493e-09
deg/d
Q
3.323554098312334
8.8459e-08
au
Orbit Determination Parameters
# obs. used (total)
150
data-arc span
5762 days (15.78 yr)
first obs. used
2003-03-31
last obs. used
2019-01-08
planetary ephem.
DE431
SB-pert. ephem.
SB431-N16
condition code
0
norm. resid. RMS
.57102
source
ORB
producer
Otto Matic
solution date
2019-Jul-14 15:55:56
Additional Information
Earth MOID
= 2.05221 au
Jupiter MOID
= 1.78655 au
T_jup
= 3.184
[ show covariance matrix ]
[
Ephemeris
|
Orbit Diagram
|
Orbital Elements
|
Mission Design
|
Physical Parameters
|
Discovery Circumstances
|
Close-Approach Data
]
Physical Parameter Table
Parameter
Symbol
Value
Units
Sigma
Reference
Notes
absolute magnitude
H
15.7
n/a
MPO434612
437736 (2014 EC10)
Discovered 2006-Nov-25 by Mt. Lemmon Survey at Mount Lemmon
Reference:
Last Updated:
2015-06-04
[ show close-approach data ]
[
Ephemeris
|
Orbit Diagram
|
Orbital Elements
|
Mission Design
|
Physical Parameters
|
Discovery Circumstances
|
Close-Approach Data
]
2019-Dec-15 19:18 UT
(server date/time)
Site Manager:
Ryan S. Park
Webmaster
:
Alan B. Chamberlin